Вернуться в каталог

ONEWEB-0241

АктивенСвязьPO
NORAD 48773·PAYLOAD·🇬🇧 United Kingdom

Запущен May 28, 2021 с Vostochny Cosmodrome

Loading…

Ближайшие Пролёты (ближайшие 24 часа)

TLE

СвежийSource: CelesTrak SupGP

Эпоха: Sep 14, 2026, 20:44 UTC

1 48773C 21045G   26257.86437917  .00002937  00000+0  78095-2 0  2576
2 48773  87.8993 241.3227 0001991  75.5227 319.8667 13.15549005    18

Отслеживайте ONEWEB-0241 в реальном времени с AllMySat

Download on the App Store